Regional Weather Roundup
Issued by NWS

Home | Current Version | Previous Version | Text Only | Print | Product List | Glossary Off
Versions: 1 2 3 4 5 6 7 8 9 10 11 12 13 14 15 16 17 18 19 20 21 22 23 24 25 26 27

000
ASUS45 KCYS 280610
RWRWY

WYOMING REGIONAL WEATHER ROUNDUP
NATIONAL WEATHER SERVICE CHEYENNE WY
1200 AM MDT SUN MAY 28 2017

NOTE:  "FAIR" INDICATES FEW OR NO CLOUDS BELOW 12,000 FEET
WITH NO SIGNIFICANT WEATHER AND/OR OBSTRUCTIONS TO VISIBILITY.

WYZ001-280700-
YELLOWSTONE NATIONAL PARK

CITY           SKY/WX    TMP DP  RH WIND       PRES   REMARKS
LK YELLOWSTONE   N/A     30  30 100 CALM      30.39S
6HR MIN TEMP:  30; 6HR MAX TEMP:  52;

W YELLOWSTONE  NOT AVBL

$$
WYZ002>013-054>058-071-098>099-280700-
NORTHERN WYOMING

CITY           SKY/WX    TMP DP  RH WIND       PRES   REMARKS
JACKSON        FAIR      36  34  93 CALM      30.34R
CODY           FAIR      52  36  54 SW9       30.24S
GREYBULL       MOCLDY    55  34  45 E3        30.16S
6HR MIN TEMP:  55; 6HR MAX TEMP:  71;

WORLAND          N/A     48  39  71 S10       30.18R
6HR MIN TEMP:  46; 6HR MAX TEMP:  70;

SHERIDAN       MOCLDY    57  40  52 W14       30.14F
6HR MIN TEMP:  56; 6HR MAX TEMP:  69;

BUFFALO        MOCLDY    56  35  45 NW8       30.19S
6HR MIN TEMP:  52; 6HR MAX TEMP:  65;

GILLETTE       FAIR      48  40  73 W13       30.13S
6HR MIN TEMP:  45; 6HR MAX TEMP:  64;

HULETT         FAIR      50  39  66 SW10      30.12S
NEWCASTLE      FAIR      46  41  81 NW8       30.14S

$$
WYZ014>020-022>026-101>103-280700-
CENTRAL WYOMING

CITY           SKY/WX    TMP DP  RH WIND       PRES   REMARKS
BIG PINEY      FAIR      38  30  73 N13       30.34S WCI  30
6HR MIN TEMP:  38; 6HR MAX TEMP:  60;

PINEDALE       FAIR      34  30  86 NW12      30.35S WCI  25
DUBOIS         FAIR      37  30  75 NW10      30.34R WCI  30
LANDER         FAIR      49  30  48 S3        30.26R
6HR MIN TEMP:  48; 6HR MAX TEMP:  63;

RIVERTON       FAIR      48  34  58 W9        30.26R
6HR MIN TEMP:  47; 6HR MAX TEMP:  64;

CASPER         FAIR      42  38  85 W7        30.23S
6HR MIN TEMP:  41; 6HR MAX TEMP:  60;

DOUGLAS        FAIR      42  37  82 NW5       30.21S
6HR MIN TEMP:  42; 6HR MAX TEMP:  61;


$$
WYZ021-027>030-104>119-280700-
SOUTHERN WYOMING

CITY           SKY/WX    TMP DP  RH WIND       PRES   REMARKS
EVANSTON       FAIR      48  33  56 NE3       30.34S
6HR MIN TEMP:  48; 6HR MAX TEMP:  60;

KEMMERER         N/A     41  32  70 N6        30.35S
ROCK SPRINGS   FAIR      47  28  47 SE8       30.32R
6HR MIN TEMP:  47; 6HR MAX TEMP:  61;

DIXON            N/A     40  31  70 E6        30.34R
RAWLINS        FAIR      38  30  73 NW8       30.31S WCI  32
6HR MIN TEMP:  37; 6HR MAX TEMP:  58;

SARATOGA       FAIR      34  34 100 CALM      30.33S
LARAMIE        FAIR      35  28  75 W6        30.30R WCI  30
6HR MIN TEMP:  35; 6HR MAX TEMP:  54;

CHEYENNE       FAIR      41  33  73 W9        30.25S
6HR MIN TEMP:  41; 6HR MAX TEMP:  57;

TORRINGTON     FAIR      47  39  74 NW9       30.15S
6HR MIN TEMP:  47; 6HR MAX TEMP:  66;

PINE BLUFFS    FAIR      37  37 100 MISG      30.22S

$$




USA.gov is the U.S. government's official web portal to all federal, state and local government web resources and services.